When you browse on this site, cookies collect data to enhance your experience and personalize the content and advertising you see.
Visit our Privacy Policy to learn more. By continuing to use the site, you agree to this use of cookies and data.
  • In Hungary
  • List of Countries
  • For 7 days
  • Water Temperature
  • Weather Map
  • News
  • Weather Widgets
  • user-avatar
    Login

    Hourly Weather Sonson

    Today, 8 December, Sunday

    Time Temperature Precipitation Wind Pressure Humidity
    00:00 +9°C° 0.4 mm 0 mps 563 mmHg 97%
    01:00 +9°C° 0.4 mm 0 mps 563 mmHg 97%
    02:00 +9°C° 0.2 mm 0 mps 563 mmHg 97%
    03:00 +9°C° 0.2 mm 0 mps 563 mmHg 98%
    04:00 +9°C° 0.2 mm 0 mps 563 mmHg 98%
    05:00 +9°C° 0.1 mm 0 mps 563 mmHg 97%
    06:00 +10°C° 0.1 mm 0 mps 564 mmHg 97%
    07:00 +10°C° 0.1 mm 0 mps 564 mmHg 96%
    08:00 +11°C° 0.4 mm 0 mps 565 mmHg 93%
    09:00 +13°C° 0.4 mm 0 mps 565 mmHg 90%
    10:00 +15°C° 0.4 mm 1 mps 566 mmHg 86%
    11:00 +15°C° 0.9 mm 1 mps 565 mmHg 85%
    12:00 +16°C° 0.9 mm 1 mps 565 mmHg 83%
    13:00 +16°C° 0.9 mm 1 mps 565 mmHg 82%
    14:00 +16°C° 0.9 mm 1 mps 564 mmHg 83%
    15:00 +16°C° 0.9 mm 1 mps 564 mmHg 84%
    16:00 +16°C° 0.9 mm 1 mps 563 mmHg 86%
    17:00 +15°C° 0.7 mm 1 mps 563 mmHg 90%
    18:00 +13°C° 0.7 mm 1 mps 563 mmHg 94%
    19:00 +12°C° 0.7 mm 1 mps 563 mmHg 98%
    20:00 +11°C° 0.4 mm 0 mps 563 mmHg 98%
    21:00 +10°C° 0.4 mm 0 mps 563 mmHg 98%
    22:00 +10°C° 0.4 mm 0 mps 563 mmHg 98%
    23:00 +10°C° 0.1 mm 0 mps 563 mmHg 98%

    Tomorrow, 9 December, Monday

    Time Temperature Precipitation Wind Pressure Humidity
    00:00 +9°C° 0.1 mm 0 mps 563 mmHg 98%
    01:00 +9°C° 0.1 mm 0 mps 562 mmHg 98%
    02:00 +9°C° 0 mm 0 mps 562 mmHg 97%
    03:00 +8°C° 0 mm 0 mps 561 mmHg 97%
    04:00 +8°C° 0 mm 0 mps 561 mmHg 97%
    05:00 +8°C° 0 mm 0 mps 561 mmHg 96%
    06:00 +9°C° 0 mm 0 mps 562 mmHg 95%
    07:00 +9°C° 0 mm 0 mps 563 mmHg 95%
    08:00 +13°C° 0 mm 1 mps 564 mmHg 84%
    09:00 +15°C° 0 mm 1 mps 565 mmHg 74%
    10:00 +18°C° 0 mm 1 mps 567 mmHg 63%
    11:00 +19°C° 0.4 mm 1 mps 566 mmHg 66%
    12:00 +19°C° 0.4 mm 1 mps 565 mmHg 68%
    13:00 +19°C° 0.4 mm 1 mps 565 mmHg 71%
    14:00 +18°C° 0.9 mm 1 mps 564 mmHg 76%
    15:00 +18°C° 0.9 mm 1 mps 563 mmHg 81%
    16:00 +16°C° 0.9 mm 1 mps 563 mmHg 86%
    17:00 +15°C° 0.8 mm 1 mps 562 mmHg 90%
    18:00 +14°C° 0.8 mm 1 mps 562 mmHg 94%
    19:00 +12°C° 0.8 mm 1 mps 562 mmHg 98%
    20:00 +11°C° 0.5 mm 0 mps 562 mmHg 98%
    21:00 +11°C° 0.5 mm 0 mps 563 mmHg 98%
    22:00 +11°C° 0.5 mm 0 mps 563 mmHg 98%
    23:00 +10°C° 0.3 mm 0 mps 563 mmHg 98%

    Day after tomorrow, 10 December, Tuesday

    Time Temperature Precipitation Wind Pressure Humidity
    00:00 +10°C° 0.3 mm 0 mps 562 mmHg 98%
    01:00 +10°C° 0.3 mm 0 mps 562 mmHg 98%
    02:00 +10°C° 0.1 mm 0 mps 562 mmHg 98%
    03:00 +10°C° 0.1 mm 0 mps 562 mmHg 98%
    04:00 +10°C° 0.1 mm 0 mps 561 mmHg 98%
    05:00 +10°C° 0.1 mm 0 mps 562 mmHg 97%
    06:00 +10°C° 0.1 mm 0 mps 563 mmHg 97%
    07:00 +10°C° 0.1 mm 0 mps 563 mmHg 97%
    08:00 +12°C° 0.5 mm 0 mps 564 mmHg 94%
    09:00 +13°C° 0.5 mm 0 mps 564 mmHg 91%
    10:00 +15°C° 0.5 mm 1 mps 565 mmHg 89%
    11:00 +16°C° 1.3 mm 1 mps 565 mmHg 87%
    12:00 +18°C° 1.3 mm 1 mps 565 mmHg 84%
    13:00 +17°C° 1.3 mm 0 mps 565 mmHg 82%
    14:00 +16°C° 1.6 mm 0 mps 564 mmHg 85%
    15:00 +15°C° 1.6 mm 0 mps 563 mmHg 89%
    16:00 +15°C° 1.6 mm 0 mps 563 mmHg 92%
    17:00 +14°C° 1.2 mm 0 mps 563 mmHg 94%
    18:00 +12°C° 1.2 mm 0 mps 562 mmHg 96%
    19:00 +11°C° 1.2 mm 0 mps 562 mmHg 98%
    20:00 +11°C° 0.8 mm 0 mps 562 mmHg 98%
    21:00 +11°C° 0.8 mm 0 mps 563 mmHg 98%
    22:00 +11°C° 0.8 mm 0 mps 563 mmHg 97%
    23:00 +10°C° 0.7 mm 0 mps 563 mmHg 98%

    11 December, Wednesday

    Time Temperature Precipitation Wind Pressure Humidity
    00:00 +10°C° 0.7 mm 0 mps 563 mmHg 98%
    01:00 +10°C° 0.7 mm 0 mps 562 mmHg 98%
    02:00 +10°C° 0.5 mm 0 mps 562 mmHg 98%
    03:00 +10°C° 0.5 mm 0 mps 562 mmHg 98%
    04:00 +10°C° 0.5 mm 0 mps 562 mmHg 98%
    05:00 +10°C° 0.4 mm 0 mps 562 mmHg 98%
    06:00 +10°C° 0.4 mm 0 mps 563 mmHg 97%
    07:00 +11°C° 0.4 mm 0 mps 563 mmHg 97%
    08:00 +11°C° 0.3 mm 0 mps 564 mmHg 94%
    09:00 +12°C° 0.3 mm 0 mps 564 mmHg 92%
    10:00 +13°C° 0.3 mm 0 mps 565 mmHg 89%
    11:00 +14°C° 0.9 mm 0 mps 565 mmHg 87%
    12:00 +15°C° 0.9 mm 0 mps 565 mmHg 85%
    13:00 +16°C° 0.9 mm 0 mps 564 mmHg 84%
    14:00 +15°C° 1.2 mm 0 mps 564 mmHg 86%
    15:00 +15°C° 1.2 mm 0 mps 563 mmHg 88%
    16:00 +14°C° 1.2 mm 0 mps 563 mmHg 91%
    17:00 +13°C° 1 mm 0 mps 562 mmHg 93%
    18:00 +12°C° 1 mm 0 mps 562 mmHg 96%
    19:00 +11°C° 1 mm 1 mps 562 mmHg 98%
    20:00 +10°C° 1 mm 0 mps 562 mmHg 98%
    21:00 +10°C° 1 mm 0 mps 562 mmHg 98%
    22:00 +10°C° 1 mm 0 mps 563 mmHg 98%
    23:00 +10°C° 0.6 mm 0 mps 563 mmHg 98%

    12 December, Thursday

    Time Temperature Precipitation Wind Pressure Humidity
    00:00 +10°C° 0.6 mm 0 mps 562 mmHg 98%
    01:00 +10°C° 0.6 mm 0 mps 562 mmHg 98%
    02:00 +10°C° 0.4 mm 0 mps 562 mmHg 98%
    03:00 +10°C° 0.4 mm 0 mps 562 mmHg 98%
    04:00 +9°C° 0.4 mm 0 mps 562 mmHg 98%
    05:00 +9°C° 0.5 mm 0 mps 562 mmHg 98%
    06:00 +9°C° 0.5 mm 0 mps 562 mmHg 98%
    07:00 +10°C° 0.5 mm 0 mps 563 mmHg 97%
    08:00 +11°C° 0.2 mm 0 mps 563 mmHg 93%
    09:00 +12°C° 0.2 mm 0 mps 564 mmHg 88%
    10:00 +13°C° 0.2 mm 0 mps 565 mmHg 83%
    11:00 +15°C° 0.3 mm 1 mps 564 mmHg 81%
    12:00 +16°C° 0.3 mm 1 mps 564 mmHg 80%
    13:00 +18°C° 0.3 mm 1 mps 564 mmHg 78%
    14:00 +16°C° 0.9 mm 1 mps 563 mmHg 83%
    15:00 +15°C° 0.9 mm 0 mps 563 mmHg 87%
    16:00 +14°C° 0.9 mm 0 mps 562 mmHg 92%
    17:00 +13°C° 1.2 mm 0 mps 562 mmHg 94%
    18:00 +13°C° 1.2 mm 1 mps 562 mmHg 96%
    19:00 +11°C° 1.2 mm 1 mps 562 mmHg 98%
    20:00 +10°C° 0.9 mm 0 mps 562 mmHg 97%
    21:00 +10°C° 0.9 mm 0 mps 562 mmHg 97%
    22:00 +10°C° 0.9 mm 0 mps 563 mmHg 97%
    23:00 +10°C° 0.9 mm 0 mps 563 mmHg 97%

    13 December, Friday

    Time Temperature Precipitation Wind Pressure Humidity
    00:00 +10°C° 0.9 mm 0 mps 562 mmHg 98%
    01:00 +10°C° 0.9 mm 0 mps 562 mmHg 98%
    02:00 +10°C° 0.7 mm 0 mps 562 mmHg 98%
    03:00 +9°C° 0.7 mm 0 mps 562 mmHg 98%
    04:00 +9°C° 0.7 mm 0 mps 561 mmHg 98%
    05:00 +9°C° 0.1 mm 0 mps 562 mmHg 98%
    06:00 +10°C° 0.1 mm 0 mps 562 mmHg 98%
    07:00 +10°C° 0.1 mm 0 mps 563 mmHg 98%
    08:00 +11°C° 0.1 mm 0 mps 563 mmHg 92%
    09:00 +12°C° 0.1 mm 0 mps 564 mmHg 87%
    10:00 +15°C° 0.1 mm 1 mps 565 mmHg 82%
    11:00 +16°C° 0.3 mm 1 mps 565 mmHg 78%
    12:00 +18°C° 0.3 mm 1 mps 565 mmHg 74%
    13:00 +19°C° 0.3 mm 1 mps 564 mmHg 70%
    14:00 +18°C° 0.8 mm 1 mps 564 mmHg 76%
    15:00 +15°C° 0.8 mm 0 mps 563 mmHg 82%
    16:00 +14°C° 0.8 mm 0 mps 562 mmHg 88%
    17:00 +13°C° 0.7 mm 0 mps 562 mmHg 91%
    18:00 +13°C° 0.7 mm 1 mps 562 mmHg 94%
    19:00 +11°C° 0.7 mm 1 mps 562 mmHg 97%
    20:00 +11°C° 0.6 mm 1 mps 562 mmHg 97%
    21:00 +11°C° 0.6 mm 1 mps 562 mmHg 97%
    22:00 +10°C° 0.6 mm 1 mps 562 mmHg 97%
    23:00 +9°C° 1 mm 0 mps 562 mmHg 97%
    Show more